TimeEDT,TemperatureF,Dew PointF,Humidity,Sea Level PressureIn,VisibilityMPH,Wind Direction,Wind SpeedMPH,Gust SpeedMPH,PrecipitationIn,Events,Conditions,WindDirDegrees,DateUTC
12:53 AM,75.9,73.9,94,29.83,6.0,Calm,Calm,-,N/A,,Clear,0,2013-09-03 04:53:00
1:53 AM,75.9,73.9,94,29.83,5.0,Calm,Calm,-,N/A,,Clear,0,2013-09-03 05:53:00
2:53 AM,75.0,73.0,94,29.82,2.5,South,3.5,-,N/A,,Clear,170,2013-09-03 06:53:00
3:00 AM,75.2,73.4,94,29.82,3.0,South,3.5,-,N/A,,Clear,170,2013-09-03 07:00:00
3:17 AM,73.4,73.4,100,29.82,1.5,Calm,Calm,-,N/A,,Clear,0,2013-09-03 07:17:00
3:20 AM,73.4,73.4,100,29.81,0.8,Calm,Calm,-,N/A,,Mist,0,2013-09-03 07:20:00
3:40 AM,73.4,71.6,94,29.82,1.2,Calm,Calm,-,N/A,,Partly Cloudy,0,2013-09-03 07:40:00
3:47 AM,73.4,71.6,94,29.82,3.0,South,3.5,-,N/A,,Partly Cloudy,170,2013-09-03 07:47:00
3:53 AM,73.9,72.0,93,29.81,4.0,South,4.6,-,N/A,,Clear,170,2013-09-03 07:53:00
4:14 AM,73.4,73.4,100,29.81,1.8,Calm,Calm,-,N/A,,Clear,0,2013-09-03 08:14:00
4:16 AM,73.4,71.6,94,29.81,1.0,Calm,Calm,-,N/A,,Mist,0,2013-09-03 08:16:00
4:23 AM,73.4,71.6,94,29.81,0.5,Calm,Calm,-,N/A,Fog,Fog,0,2013-09-03 08:23:00
4:30 AM,73.4,71.6,94,29.81,1.5,Calm,Calm,-,N/A,,Partly Cloudy,0,2013-09-03 08:30:00
4:38 AM,71.6,71.6,100,29.81,2.5,South,3.5,-,N/A,,Partly Cloudy,180,2013-09-03 08:38:00
4:53 AM,73.0,72.0,96,29.81,3.0,Calm,Calm,-,N/A,,Clear,0,2013-09-03 08:53:00
5:05 AM,73.4,71.6,94,29.81,1.8,Calm,Calm,-,N/A,,Clear,0,2013-09-03 09:05:00
5:13 AM,71.6,71.6,100,29.81,0.2,Calm,Calm,-,N/A,Fog,Fog,0,2013-09-03 09:13:00
5:22 AM,73.4,71.6,94,29.82,0.8,Calm,Calm,-,N/A,,Mist,0,2013-09-03 09:22:00
5:26 AM,71.6,71.6,100,29.82,1.2,South,3.5,-,N/A,,Partly Cloudy,180,2013-09-03 09:26:00
5:33 AM,73.4,71.6,94,29.82,3.0,Calm,Calm,-,N/A,,Partly Cloudy,0,2013-09-03 09:33:00
5:53 AM,73.0,72.0,96,29.82,2.5,Calm,Calm,-,N/A,,Clear,0,2013-09-03 09:53:00
6:04 AM,73.4,73.4,100,29.82,3.0,Calm,Calm,-,N/A,,Clear,0,2013-09-03 10:04:00
6:53 AM,73.9,73.0,97,29.82,2.5,South,4.6,-,0.01,,Clear,180,2013-09-03 10:53:00
7:11 AM,73.4,73.4,100,29.83,3.0,South,5.8,-,N/A,,Clear,190,2013-09-03 11:11:00
7:53 AM,75.0,73.9,96,29.84,4.0,South,5.8,-,N/A,,Clear,190,2013-09-03 11:53:00
8:53 AM,77.0,73.9,90,29.87,4.0,SSW,9.2,-,N/A,,Partly Cloudy,210,2013-09-03 12:53:00
9:03 AM,77.0,75.2,94,29.87,5.0,SSW,8.1,-,N/A,,Scattered Clouds,210,2013-09-03 13:03:00
9:53 AM,78.1,73.9,87,29.87,6.0,SW,4.6,-,N/A,,Partly Cloudy,220,2013-09-03 13:53:00
10:53 AM,82.0,73.9,76,29.88,8.0,WSW,5.8,-,N/A,,Partly Cloudy,240,2013-09-03 14:53:00
11:06 AM,80.6,73.4,79,29.88,8.0,WSW,6.9,-,N/A,Thunderstorm,Mostly Cloudy,250,2013-09-03 15:06:00
11:53 AM,80.1,72.0,76,29.87,10.0,South,4.6,-,0.00,Thunderstorm,Clear,170,2013-09-03 15:53:00
12:02 PM,80.6,71.6,74,29.87,10.0,SSW,4.6,-,N/A,,Clear,210,2013-09-03 16:02:00
12:53 PM,86.0,71.1,61,29.86,10.0,West,6.9,-,N/A,,Clear,260,2013-09-03 16:53:00
1:53 PM,82.0,64.0,54,29.84,10.0,WNW,8.1,-,N/A,,Clear,290,2013-09-03 17:53:00
2:00 PM,82.4,62.6,51,29.85,10.0,WNW,10.4,-,N/A,Thunderstorm,Partly Cloudy,290,2013-09-03 18:00:00
2:21 PM,78.8,64.4,61,29.84,10.0,West,4.6,-,N/A,,Partly Cloudy,260,2013-09-03 18:21:00
2:53 PM,79.0,64.9,62,29.82,10.0,Calm,Calm,-,N/A,,Clear,0,2013-09-03 18:53:00
3:53 PM,84.0,68.0,58,29.82,10.0,Calm,Calm,-,N/A,,Clear,0,2013-09-03 19:53:00
4:53 PM,82.0,70.0,67,29.83,10.0,Calm,Calm,-,N/A,,Partly Cloudy,0,2013-09-03 20:53:00
5:18 PM,82.4,69.8,66,29.84,10.0,North,5.8,-,N/A,Thunderstorm,Clear,360,2013-09-03 21:18:00
5:53 PM,79.0,63.0,58,29.84,10.0,North,13.8,29.9,0.00,Rain-Thunderstorm,Light Thunderstorms and Rain,10,2013-09-03 21:53:00
6:06 PM,73.4,66.2,78,29.84,10.0,NE,3.5,-,0.00,Rain,Light Rain,50,2013-09-03 22:06:00
6:13 PM,75.2,66.2,73,29.84,10.0,Calm,Calm,-,0.00,Thunderstorm,Mostly Cloudy,0,2013-09-03 22:13:00
6:30 PM,73.4,68.0,83,29.85,10.0,East,3.5,-,0.00,Rain,Light Rain,90,2013-09-03 22:30:00
6:53 PM,73.0,69.1,87,29.86,10.0,Calm,Calm,-,0.00,,Clear,0,2013-09-03 22:53:00
7:53 PM,73.0,70.0,90,29.88,8.0,Calm,Calm,-,N/A,,Clear,0,2013-09-03 23:53:00
8:53 PM,70.0,69.1,97,29.89,7.0,Calm,Calm,-,N/A,,Clear,0,2013-09-04 00:53:00
9:53 PM,70.0,69.1,97,29.92,6.0,Calm,Calm,-,N/A,,Clear,0,2013-09-04 01:53:00
10:18 PM,69.8,68.0,94,29.93,1.5,Calm,Calm,-,N/A,,Clear,0,2013-09-04 02:18:00
10:35 PM,69.8,68.0,94,29.93,2.5,Calm,Calm,-,N/A,,Clear,0,2013-09-04 02:35:00
10:42 PM,69.8,68.0,94,29.93,5.0,Calm,Calm,-,N/A,,Clear,0,2013-09-04 02:42:00
10:53 PM,69.1,68.0,96,29.93,4.0,Calm,Calm,-,N/A,,Clear,0,2013-09-04 02:53:00
11:02 PM,69.8,68.0,94,29.93,2.0,Calm,Calm,-,N/A,,Clear,0,2013-09-04 03:02:00
11:08 PM,68.0,66.2,94,29.94,0.8,Calm,Calm,-,N/A,,Clear,0,2013-09-04 03:08:00
11:25 PM,68.0,68.0,100,29.94,2.0,Calm,Calm,-,N/A,,Clear,0,2013-09-04 03:25:00
11:29 PM,68.0,66.2,94,29.94,0.8,Calm,Calm,-,N/A,,Clear,0,2013-09-04 03:29:00
11:39 PM,68.0,66.2,94,29.94,2.0,Calm,Calm,-,N/A,,Clear,0,2013-09-04 03:39:00
11:53 PM,66.9,66.0,97,29.94,1.2,Calm,Calm,-,N/A,,Clear,0,2013-09-04 03:53:00